STARLINK-32078, 60338

Orbit data source: Space-Track

STARLINK-32078, 60338 is a payload satellite owned by SpaceX/Seattle (US) in LEO that was launched on Fri, 02 Aug 2024 UTC via an FALCON 9 launch vehicle from the Air Force Eastern Test Range (AFETR). Payload-class satellites include a variety of spacecraft equipped with specific instruments for various scientific and technological missions. These include communications satellites like Starlink; space stations such as the ISS; scientific satellites like the Hubble; Earth observation satellites from companies like Planet Labs, Umbra, and HawkEye 360; GPS; miniature CubeSats for education and research; and military/defense satellites.

Loading next visibility...
Identifier
60338, 2024-136K
Orbit
LEO
Country
Flag of USUS
Related business
Manufacturer
SpaceX/Seattle
Mission
Operational Commercial Communications
Bus & Motor
STARLINK V2M, Unknown motor
Mass
730 kg wet, ~700 kg dry
Launch date (UTC)
2024-08-02 (2 years ago)
Launch vehicle
FALCON 9
Launch site
Air Force Eastern Test Range (AFETR)
Object type
Payload
Rocket body
Debris
Shape & HBR
Box + 2 Pan, 17.7 m
Radar Cross Section
33.884 m², Large (>1 m²)

Expand to show TLE details & history
Last TLE update: 13 hours ago

TLE from 13 hours ago
0 STARLINK-32078
1 60338U 24136K   26072.34625654 -.00000454  00000-0 -32125-5 0  9991
2 60338  53.1621  58.7330 0001327  86.3140 273.8013 15.30184632 90221
Epoch: 2026-03-13T08:18Z
TLE epoch observation values (Epoch: 2026-03-13T08:18:36.565Z)
Latitude
0.00004°
Longitude
123.09757°
Altitude
476.101 km
Speed
7.629 km/s
True Right ascension
03h 54m 55s
True Declination
0° 00' 00"
Sunlit
Object was in daylight at epoch
Visualization orbit readout
Latitude
Unknown
Longitude
Unknown
Altitude
Unknown
Speed
Unknown
Apparent Right ascension
Unknown
Apparent Declination
Unknown
Sunlit
N/A
Visualization observer readout
Local Sidereal Time
01:35:22
Azimuth
Unknown
Elevation
Unknown
Doppler factor
Unknown
Orbital elements
Apogee altitude
476.427 km
Perigee altitude
474.608 km
Semi-major axis
6,853.654 km
Eccentricity
0.00013
Inclination
53.1621°
RAAN
58.733°
Arg. of periapsis
86.314°
True anomaly
273.78613°
Mean anomaly
273.8013°
Eccentric anomaly
273.79371°
Mean motion
3.82525 °/min
Orbital period
94.11 mins
BSTAR
-0.0000032125
Loading maneuver chart data...
Computing Atmospheric mass density...
Loading historical data...
Loading historical data...
Loading historical data...
Loading historical data...
Loading historical data...
Loading historical data...
Loading historical data...

Documentation

Showing up to 5 results
|